TimePDT,TemperatureF,Dew PointF,Humidity,Sea Level PressureIn,VisibilityMPH,Wind Direction,Wind SpeedMPH,Gust SpeedMPH,PrecipitationIn,Events,Conditions,WindDirDegrees,DateUTC
12:15 AM,48.2,21.2,34,30.30,10.0,Calm,Calm,-,N/A,,Clear,0,2013-08-13 07:15:00
12:35 AM,50.0,23.0,35,30.30,10.0,Calm,Calm,-,N/A,,Clear,0,2013-08-13 07:35:00
12:55 AM,51.8,24.8,35,30.30,10.0,Calm,Calm,-,N/A,,Clear,0,2013-08-13 07:55:00
1:15 AM,53.6,24.8,33,30.30,10.0,WNW,5.8,-,N/A,,Clear,300,2013-08-13 08:15:00
1:35 AM,51.8,23.0,33,30.29,10.0,WNW,9.2,-,N/A,,Clear,290,2013-08-13 08:35:00
1:55 AM,48.2,23.0,37,30.29,10.0,North,3.5,-,N/A,,Clear,360,2013-08-13 08:55:00
2:15 AM,46.4,23.0,40,30.29,10.0,Calm,Calm,-,N/A,,Clear,0,2013-08-13 09:15:00
2:35 AM,46.4,21.2,37,30.30,10.0,Calm,Calm,-,N/A,,Clear,0,2013-08-13 09:35:00
2:55 AM,42.8,21.2,42,30.30,10.0,Calm,Calm,-,N/A,,Clear,0,2013-08-13 09:55:00
3:15 AM,41.0,23.0,49,30.30,10.0,Calm,Calm,-,N/A,,Clear,0,2013-08-13 10:15:00
3:35 AM,41.0,21.2,45,30.30,10.0,Calm,Calm,-,N/A,,Clear,0,2013-08-13 10:35:00
3:55 AM,39.2,19.4,45,30.30,10.0,Calm,Calm,-,N/A,,Clear,0,2013-08-13 10:55:00
4:15 AM,35.6,21.2,56,30.30,10.0,NNW,3.5,-,N/A,,Clear,340,2013-08-13 11:15:00
4:35 AM,35.6,21.2,56,30.30,10.0,Calm,Calm,-,N/A,,Clear,0,2013-08-13 11:35:00
4:55 AM,35.6,19.4,52,30.30,10.0,NNW,3.5,-,N/A,,Clear,340,2013-08-13 11:55:00
5:15 AM,35.6,19.4,52,30.30,10.0,NNW,8.1,-,N/A,,Clear,340,2013-08-13 12:15:00
5:35 AM,37.4,19.4,48,30.30,10.0,North,4.6,-,N/A,,Clear,360,2013-08-13 12:35:00
5:55 AM,39.2,17.6,42,30.31,10.0,North,10.4,-,N/A,,Clear,350,2013-08-13 12:55:00
6:15 AM,37.4,17.6,45,30.31,10.0,NNW,9.2,-,N/A,,Clear,340,2013-08-13 13:15:00
6:35 AM,39.2,17.6,42,30.31,10.0,North,4.6,-,N/A,,Clear,360,2013-08-13 13:35:00
6:55 AM,39.2,15.8,39,30.31,10.0,North,6.9,-,N/A,,Clear,350,2013-08-13 13:55:00
7:15 AM,42.8,17.6,36,30.32,10.0,Calm,Calm,-,N/A,,Clear,0,2013-08-13 14:15:00
7:35 AM,48.2,17.6,30,30.32,10.0,Calm,Calm,-,N/A,,Clear,0,2013-08-13 14:35:00
7:55 AM,51.8,19.4,28,30.32,10.0,Calm,Calm,-,N/A,,Clear,0,2013-08-13 14:55:00
8:15 AM,55.4,19.4,25,30.33,10.0,Calm,Calm,-,N/A,,Clear,0,2013-08-13 15:15:00
8:35 AM,59.0,26.6,29,30.33,10.0,Calm,Calm,-,N/A,,Clear,0,2013-08-13 15:35:00
8:55 AM,60.8,26.6,27,30.33,10.0,Calm,Calm,-,N/A,,Clear,0,2013-08-13 15:55:00
9:15 AM,64.4,23.0,21,30.33,10.0,Calm,Calm,-,N/A,,Clear,0,2013-08-13 16:15:00
9:35 AM,66.2,24.8,21,30.32,10.0,Calm,Calm,-,N/A,,Clear,0,2013-08-13 16:35:00
9:55 AM,71.6,23.0,16,30.32,10.0,SE,6.9,-,N/A,,Clear,130,2013-08-13 16:55:00
10:15 AM,73.4,15.8,11,30.32,10.0,ESE,6.9,-,N/A,,Clear,110,2013-08-13 17:15:00
10:35 AM,75.2,17.6,11,30.32,10.0,East,6.9,-,N/A,,Clear,100,2013-08-13 17:35:00
10:55 AM,75.2,15.8,11,30.32,10.0,ESE,5.8,-,N/A,,Clear,110,2013-08-13 17:55:00
11:15 AM,77.0,17.6,11,30.31,10.0,ESE,6.9,-,N/A,,Clear,120,2013-08-13 18:15:00
11:35 AM,78.8,15.8,9,30.31,10.0,East,9.2,-,N/A,,Clear,100,2013-08-13 18:35:00
11:55 AM,78.8,17.6,10,30.30,10.0,ESE,9.2,16.1,N/A,,Clear,120,2013-08-13 18:55:00
12:15 PM,80.6,17.6,10,30.30,10.0,SE,10.4,19.6,N/A,,Clear,140,2013-08-13 19:15:00
12:35 PM,78.8,19.4,11,30.29,10.0,East,10.4,20.7,N/A,,Clear,100,2013-08-13 19:35:00
12:55 PM,80.6,19.4,10,30.29,10.0,ESE,13.8,18.4,N/A,,Clear,110,2013-08-13 19:55:00
1:15 PM,80.6,19.4,10,30.29,10.0,ESE,9.2,21.9,N/A,,Clear,120,2013-08-13 20:15:00
1:35 PM,82.4,19.4,10,30.29,10.0,ESE,10.4,18.4,N/A,,Clear,110,2013-08-13 20:35:00
1:55 PM,80.6,19.4,10,30.28,10.0,East,8.1,20.7,N/A,,Clear,100,2013-08-13 20:55:00
2:15 PM,82.4,19.4,10,30.28,10.0,ESE,4.6,-,N/A,,Clear,110,2013-08-13 21:15:00
2:35 PM,82.4,17.6,9,30.28,10.0,West,5.8,-,N/A,,Clear,260,2013-08-13 21:35:00
2:55 PM,82.4,17.6,9,30.27,10.0,NNW,11.5,23.0,N/A,,Clear,330,2013-08-13 21:55:00
3:15 PM,84.2,17.6,8,30.26,10.0,West,12.7,25.3,N/A,,Clear,280,2013-08-13 22:15:00
3:35 PM,82.4,21.2,10,30.25,10.0,WNW,13.8,29.9,N/A,,Clear,300,2013-08-13 22:35:00
3:55 PM,82.4,21.2,10,30.25,10.0,WNW,17.3,25.3,N/A,,Clear,300,2013-08-13 22:55:00
5:15 PM,80.6,23.0,12,30.24,10.0,West,16.1,24.2,N/A,,Clear,280,2013-08-14 00:15:00
5:35 PM,80.6,23.0,12,30.24,10.0,West,12.7,24.2,N/A,,Clear,280,2013-08-14 00:35:00
5:55 PM,78.8,23.0,13,30.25,10.0,West,16.1,25.3,N/A,,Clear,280,2013-08-14 00:55:00
6:15 PM,78.8,23.0,13,30.24,10.0,WNW,18.4,27.6,N/A,,Clear,290,2013-08-14 01:15:00
6:35 PM,77.0,21.2,12,30.24,10.0,WNW,17.3,23.0,N/A,,Clear,290,2013-08-14 01:35:00
6:55 PM,75.2,21.2,13,30.24,10.0,WNW,13.8,23.0,N/A,,Clear,300,2013-08-14 01:55:00
7:15 PM,75.2,23.0,14,30.25,10.0,West,6.9,19.6,N/A,,Clear,270,2013-08-14 02:15:00
7:35 PM,73.4,23.0,15,30.25,10.0,SW,10.4,16.1,N/A,,Clear,230,2013-08-14 02:35:00
7:55 PM,71.6,21.2,15,30.26,10.0,WNW,12.7,16.1,N/A,,Clear,300,2013-08-14 02:55:00
8:15 PM,69.8,21.2,16,30.26,10.0,West,9.2,17.3,N/A,,Clear,280,2013-08-14 03:15:00
8:35 PM,68.0,19.4,16,30.27,10.0,WSW,6.9,-,N/A,,Clear,240,2013-08-14 03:35:00
8:55 PM,66.2,19.4,17,30.27,10.0,West,5.8,-,N/A,,Clear,280,2013-08-14 03:55:00
9:15 PM,62.6,19.4,19,30.28,10.0,Calm,Calm,-,N/A,,Clear,0,2013-08-14 04:15:00
9:35 PM,62.6,24.8,24,30.28,10.0,East,5.8,-,N/A,,Clear,80,2013-08-14 04:35:00
9:55 PM,64.4,24.8,22,30.29,10.0,Calm,Calm,-,N/A,,Clear,0,2013-08-14 04:55:00
10:15 PM,62.6,23.0,22,30.29,10.0,SSW,3.5,-,N/A,,Clear,210,2013-08-14 05:15:00
10:35 PM,59.0,23.0,25,30.29,10.0,Calm,Calm,-,N/A,,Clear,0,2013-08-14 05:35:00
10:55 PM,57.2,21.2,25,30.29,10.0,Calm,Calm,-,N/A,,Clear,0,2013-08-14 05:55:00
11:15 PM,57.2,19.4,23,30.30,10.0,Calm,Calm,-,N/A,,Clear,0,2013-08-14 06:15:00
11:35 PM,53.6,19.4,26,30.30,10.0,Calm,Calm,-,N/A,,Clear,0,2013-08-14 06:35:00
11:55 PM,51.8,17.6,26,30.31,10.0,Calm,Calm,-,N/A,,Clear,0,2013-08-14 06:55:00